This is the latest recevied weather packets stored in our database for station/object K7FLA. If no packets are shown the sender has not sent any weather packets the latest 10 day(s).
| Time | Temp. | Humidity | Pressure | Rain* | Wind** | Luminosity | Snow |
|---|---|---|---|---|---|---|---|
| 1777935866 | 17.78° C | 43% | 1093.9 hPa | 0 mm | - | 241 W/m² | - |
| 1777935566 | 18.33° C | 42% | 1094.1 hPa | 0 mm | - | 378 W/m² | - |
| 1777935262 | 18.33° C | 42% | 1094.1 hPa | 0 mm | - | 238 W/m² | - |
| 1777934959 | 18.33° C | 41% | 1094.2 hPa | 0 mm | - | 230 W/m² | - |
| 1777934655 | 18.33° C | 42% | 1094.2 hPa | 0 mm | - | 337 W/m² | - |
| 1777934353 | 18.33° C | 42% | 1094.6 hPa | 0 mm | - | 269 W/m² | - |
| 1777934048 | 18.33° C | 50% | 1094.6 hPa | 0 mm | - | 295 W/m² | - |
| 1777933744 | 18.33° C | 43% | 1094.5 hPa | 0 mm | - | 587 W/m² | - |
| 1777933442 | 18.33° C | 42% | 1094.5 hPa | 0 mm | - | 255 W/m² | - |
| 1777933140 | 18.33° C | 41% | 1094.7 hPa | 0 mm | - | 280 W/m² | - |
| 1777932836 | 18.33° C | 43% | 1094.9 hPa | 0 mm | - | 285 W/m² | - |
| 1777932534 | 18.33° C | 44% | 1094.8 hPa | 0 mm | - | 295 W/m² | - |
| 1777932230 | 18.89° C | 43% | 1094.6 hPa | 0 mm | - | 223 W/m² | - |
| 1777931927 | 18.89° C | 42% | 1094.9 hPa | 0 mm | - | 244 W/m² | - |
| 1777931624 | 19.44° C | 42% | 1094.9 hPa | 0 mm | - | 316 W/m² | - |
| 1777931320 | 19.44° C | 43% | 1095.1 hPa | 0 mm | - | 345 W/m² | - |
| 1777931017 | 18.89° C | 44% | 1094.8 hPa | 0 mm | - | 670 W/m² | - |
| 1777930714 | 18.89° C | 43% | 1095.1 hPa | 0 mm | - | 302 W/m² | - |
| 1777930409 | 18.89° C | 41% | 1095.2 hPa | 0 mm | - | 516 W/m² | - |
| 1777930107 | 18.33° C | 45% | 1095.3 hPa | 0 mm | - | 380 W/m² | - |
| 1777929803 | 17.78° C | 47% | 1095.4 hPa | 0 mm | - | 333 W/m² | - |
| 1777929501 | 17.78° C | 47% | 1095.3 hPa | 0 mm | - | 318 W/m² | - |
| 1777929197 | 17.78° C | 46% | 1095.1 hPa | 0 mm | - | 264 W/m² | - |
| 1777928895 | 17.78° C | 44% | 1095.4 hPa | 0 mm | - | 186 W/m² | - |
| 1777928591 | 18.33° C | 45% | 1095.4 hPa | 0 mm | - | 166 W/m² | - |
* Rain latest hour (hover to see other rain measurements)
** Current wind speed in m/s (hover to see current wind gust speed)